DIAMOND RED (42783 NORAD) Tracking and Keplerian Element Data

This shows tracking and keplerian element data for the satellite.

Feedback or suggestion? Click here.




ElementValue
Catalog42783
NameDIAMOND RED
Epoch Orbit23555
Epoch Day261.94422539
Epoch Year2021
RAAN307.2188
Inclination97.2415
Eccentricity0.0010809
Argument of Perigee203.1574
Mean Anonmoly156.9178
Mean Motion15.24214651
Decay Rate1.715E-05
L11 42783U 17036U 21261.94422539 .00001715 00000-0 73081-4 0 9998
L22 42783 97.2415 307.2188 0010809 203.1574 156.9178 15.24214651235551

Live tracking and technical data element details for DIAMOND RED (NORAD 42783). DIAMOND RED can be tracked NOW for your location showing map with azimuth and elevation plus other details from your city location.

Track the satellite on the map from your city or location and see movement details for azimuth, elevation, latitude, longitude, range, height, and movement on the map or in text.







IsCatalogInMostPopularTable: catalog: 42783, numindb: 889
Update: records affected: 1



GetName: 42783 DIAMOND RED

Hit Count: updated at: Fri, 24 Sep 2021 17:38:15 GMT